Location: Newark
(29.4733°N, 82.6067°W)
Time: 17:08:55
(UTC+00:00)

X-37B - Pass Details

Date: 23 September 2021
Orbit: 385 x 389 km, 45.0° (Epoch: 13 October)

Event Time Altitude Azimuth Distance (km) Brightness Sun altitude
Exits shadow 10:09:06 12° 332° (NNW) 1,311 3.1 -16.1°
Maximum altitude 10:09:24 12° 338° (NNW) 1,305 3.1 -16.0°
Drops below altitude 10° 10:10:40 10° 2° (N) 1,411 3.5 -15.7°
Sets 10:13:50 0° 36° (NE) 2,268 5.2 -15.1°
